Regional Weather Roundup
Issued by NWS

Home | Current Version | Previous Version | Graphics & Text | Print | Product List | Glossary On
Versions: 1 2 3 4 5 6 7 8 9 10 11 12 13 14 15 16 17 18 19 20 21 22 23 24 25 26 27 28 29 30 31 32 33 34 35 36 37 38 39 40 41 42 43 44 45 46 47 48 49 50
000
ASUS45 KABQ 010110
RWRNM
NEW MEXICO REGIONAL WEATHER ROUNDUP
NATIONAL WEATHER SERVICE ALBUQUERQUE NM
700 PM MDT TUE JUN 30 2015

NOTE: "FAIR" MEANS FEW OR NO CLOUDS BELOW 12,000 FEET AGL WITH NO
       SIGNIFICANT WEATHER OR OBSTRUCTIONS TO VISION.

      THIS PRODUCT IS RELEASED AS TWO VERSIONS.  ONE VERSION NEAR
      THE TOP OF THE HOUR CONTAINING PRELIMINARY DATA FROM ALBUQUERQUE
      AND OTHER STATIONS.  A FINAL VERSION WITH ADDITIONAL DATA IS
      ISSUED ABOUT 10 MINUTES AFTER THE HOUR.

NMZ501-503-504-510>518-010200-
NORTHWEST PLATEAU/NORTHCENTRAL MOUNTAINS

CITY           SKY/WX    TMP DP  RH WIND       PRES   REMARKS
FARMINGTON     SUNNY     93  44  18 SW7       30.01F
SANTA FE       MOSUNNY   89  40  17 SE14      30.13F
TAOS           MOSUNNY   88  37  16 N5        30.20R

$$
NMZ402-403-502-505>509-010200-
WESTCENTRAL MOUNTAINS/SOUTHWEST MOUNTAINS

CITY           SKY/WX    TMP DP  RH WIND       PRES   REMARKS
GALLUP         MOSUNNY   92  34  13 N8G20     30.11F
SILVER CITY      N/A     86  46  25 SE16      30.08S

$$
NMZ407-409-411-412-010200-
SOUTHERN DESERTS

CITY           SKY/WX    TMP DP  RH WIND       PRES   REMARKS
DEMING         MOSUNNY   91  49  23 SE16G24   29.99R
HOLLOMAN AFB   MOSUNNY   93  46  19 SW8       29.97S
ALAMOGORDO     MOSUNNY   91  45  19 W13       29.99S
T OR C         FAIR      93  42  17 NE9G17    30.01F

$$
NMZ519>523-010200-
CENTRAL VALLEYS/CENTRAL HIGHLANDS

CITY           SKY/WX    TMP DP  RH WIND       PRES   REMARKS
ALBUQUERQUE    MOSUNNY   92  46  20 W8        30.05F
DOUBLE EAGLE   MOSUNNY   90  46  22 E5        30.10F
CLINES CORNERS SUNNY     79  44  28 SE12      30.23S
BELEN          FAIR      92  38  15 CALM      30.05S
SOCORRO        NOT AVBL

$$
NMZ524>526-539-540-010200-
SOUTHCENTRAL MOUNTAINS

CITY           SKY/WX    TMP DP  RH WIND       PRES   REMARKS
RUIDOSO        SUNNY     75  41  29 SE12      30.27R

$$
NMZ527>531-010200-
NORTHEAST HIGHLANDS/NORTHEAST PLAINS

CITY           SKY/WX    TMP DP  RH WIND       PRES   REMARKS
LAS VEGAS      SUNNY     77  51  40 S8        30.23S
RATON          SUNNY     83  51  33 SW6       30.15F
CLAYTON        SUNNY     87  46  24 S14       30.07F

$$
NMZ532>537-010200-
EASTCENTRAL PLAINS

CITY           SKY/WX    TMP DP  RH WIND       PRES   REMARKS
TUCUMCARI      SUNNY     91  45  20 S12       30.01F
CANNON AFB     SUNNY     85  49  29 SE9       30.07S
CLOVIS AIRPORT SUNNY     82  52  34 SE9         N/A

$$
NMZ028-029-538-010200-
SOUTHEAST PLAINS

CITY           SKY/WX    TMP DP  RH WIND       PRES   REMARKS
ROSWELL        SUNNY     90  54  29 SE7       30.01S
ARTESIA        SUNNY     90  54  29 SE10      30.02S
CARLSBAD       MOSUNNY   89  54  30 SE9       30.00R
HOBBS          SUNNY     84  54  34 SE9       30.05R


$$



USA.gov is the U.S. government's official web portal to all federal, state and local government web resources and services.